N857LM KTOA-KPSP

Flight info

Callsign N857LM
Flight time 1h 10m
Altitude 11000
Route SLI V64 TRM
Aircraft PA28/L-SDGRY/G

Departure

Time 2026-05-09 13:31
Airport Zamperini Field (KTOA)

Arrival

Time 2026-05-09 14:41
Airport Palm Springs International Airport (KPSP)
Time Latitude Longitude Altitude Speed Heading
2026-05-09 13:02 33.80054 -118.33979 103 ft 0 kts 217°
2026-05-09 13:23 33.80047 -118.33972 106 ft 4 kts 76°
2026-05-09 13:24 33.80032 -118.33917 104 ft 12 kts 134°
2026-05-09 13:24 33.79973 -118.33832 105 ft 15 kts 129°
2026-05-09 13:24 33.79926 -118.33761 106 ft 10 kts 123°
2026-05-09 13:24 33.79950 -118.33710 102 ft 11 kts 47°
2026-05-09 13:25 33.79933 -118.33647 103 ft 12 kts 130°
2026-05-09 13:25 33.79866 -118.33548 106 ft 19 kts 129°
2026-05-09 13:25 33.79835 -118.33399 103 ft 15 kts 42°
2026-05-09 13:26 33.79885 -118.33320 100 ft 7 kts
2026-05-09 13:26 33.79891 -118.33320 99 ft 0 kts 351°
2026-05-09 13:30 33.79909 -118.33322 99 ft 8 kts
2026-05-09 13:30 33.79942 -118.33298 99 ft 7 kts 33°
2026-05-09 13:30 33.79967 -118.33303 98 ft 6 kts 309°
2026-05-09 13:30 33.80094 -118.33496 96 ft 55 kts 308°
2026-05-09 13:31 33.80414 -118.33976 111 ft 86 kts 309°
2026-05-09 13:31 33.80802 -118.34558 248 ft 89 kts 307°
2026-05-09 13:31 33.81165 -118.35140 498 ft 88 kts 306°
2026-05-09 13:31 33.81550 -118.35719 749 ft 89 kts 310°
2026-05-09 13:32 33.81919 -118.36317 939 ft 92 kts 305°
2026-05-09 13:32 33.82591 -118.37629 1280 ft 96 kts 299°
2026-05-09 13:32 33.82720 -118.38398 1450 ft 96 kts 259°
2026-05-09 13:33 33.82393 -118.39057 1646 ft 93 kts 216°
2026-05-09 13:33 33.81796 -118.39262 1826 ft 89 kts 171°
2026-05-09 13:33 33.81278 -118.38910 1964 ft 87 kts 123°
2026-05-09 13:33 33.81064 -118.38230 2121 ft 88 kts 102°
2026-05-09 13:34 33.80953 -118.37500 2281 ft 88 kts 96°
2026-05-09 13:34 33.80912 -118.37024 2404 ft 86 kts 91°
2026-05-09 13:34 33.80967 -118.36288 2543 ft 89 kts 78°
2026-05-09 13:34 33.80993 -118.35505 2621 ft 98 kts 94°
2026-05-09 13:35 33.80929 -118.34742 2874 ft 86 kts 91°
2026-05-09 13:35 33.80985 -118.33976 2944 ft 95 kts 81°
2026-05-09 13:35 33.80885 -118.33203 3114 ft 91 kts 101°
2026-05-09 13:35 33.80744 -118.32428 3207 ft 98 kts 104°
2026-05-09 13:36 33.80595 -118.31665 3368 ft 96 kts 99°
2026-05-09 13:36 33.80484 -118.30869 3501 ft 96 kts 98°
2026-05-09 13:36 33.80300 -118.30100 3641 ft 95 kts 110°
2026-05-09 13:36 33.80076 -118.29337 3754 ft 97 kts 107°
2026-05-09 13:37 33.79898 -118.28314 3931 ft 97 kts 90°
2026-05-09 13:37 33.79891 -118.27755 3982 ft 101 kts 93°
2026-05-09 13:37 33.79799 -118.26892 4061 ft 107 kts 98°
2026-05-09 13:37 33.79734 -118.25998 4139 ft 111 kts 96°
2026-05-09 13:38 33.79661 -118.25050 4228 ft 116 kts 96°
2026-05-09 13:38 33.79648 -118.24086 4371 ft 115 kts 83°
2026-05-09 13:38 33.79619 -118.23119 4487 ft 116 kts 89°
2026-05-09 13:38 33.79560 -118.22150 4607 ft 116 kts 90°
2026-05-09 13:39 33.79487 -118.21178 4726 ft 117 kts 92°
2026-05-09 13:39 33.79411 -118.20218 4878 ft 114 kts 91°
2026-05-09 13:39 33.79346 -118.19286 5033 ft 110 kts 91°
2026-05-09 13:39 33.79282 -118.18368 5163 ft 111 kts 91°
2026-05-09 13:40 33.79218 -118.17451 5279 ft 112 kts 93°
2026-05-09 13:40 33.79110 -118.16524 5397 ft 112 kts 99°
2026-05-09 13:40 33.79023 -118.15590 5511 ft 113 kts 96°
2026-05-09 13:40 33.78953 -118.14655 5626 ft 112 kts 95°
2026-05-09 13:41 33.78896 -118.13728 5742 ft 111 kts 92°
2026-05-09 13:41 33.78847 -118.12809 5860 ft 110 kts 92°
2026-05-09 13:41 33.78790 -118.11897 5941 ft 110 kts 93°
2026-05-09 13:41 33.78728 -118.10974 6065 ft 111 kts 93°
2026-05-09 13:42 33.78662 -118.10047 6190 ft 112 kts 94°
2026-05-09 13:42 33.78591 -118.09109 6294 ft 115 kts 95°
2026-05-09 13:42 33.78507 -118.08144 6393 ft 117 kts 97°
2026-05-09 13:42 33.78423 -118.07165 6491 ft 118 kts 96°
2026-05-09 13:43 33.78346 -118.06175 6583 ft 120 kts 97°
2026-05-09 13:43 33.78272 -118.05176 6679 ft 120 kts 97°
2026-05-09 13:43 33.78196 -118.04174 6771 ft 121 kts 97°
2026-05-09 13:43 33.78121 -118.03164 6863 ft 122 kts 97°
2026-05-09 13:44 33.78046 -118.02151 6953 ft 122 kts 96°
2026-05-09 13:44 33.77972 -118.01135 7046 ft 122 kts 96°
2026-05-09 13:44 33.77899 -118.00119 7136 ft 122 kts 96°
2026-05-09 13:44 33.77829 -117.99102 7224 ft 122 kts 96°
2026-05-09 13:45 33.77754 -117.98095 7322 ft 123 kts 96°
2026-05-09 13:45 33.77678 -117.97067 7416 ft 124 kts 96°
2026-05-09 13:45 33.77603 -117.96035 7510 ft 124 kts 96°
2026-05-09 13:45 33.77526 -117.95003 7605 ft 124 kts 96°
2026-05-09 13:46 33.77449 -117.93968 7698 ft 125 kts 96°
2026-05-09 13:46 33.77371 -117.92932 7793 ft 124 kts 96°
2026-05-09 13:46 33.77294 -117.91895 7913 ft 124 kts 96°
2026-05-09 13:46 33.77216 -117.90862 8008 ft 124 kts 96°
2026-05-09 13:47 33.77139 -117.89831 8100 ft 124 kts 96°
2026-05-09 13:47 33.77064 -117.88800 8195 ft 124 kts 96°
2026-05-09 13:47 33.76991 -117.87771 8290 ft 123 kts 95°
2026-05-09 13:47 33.76936 -117.86741 8386 ft 123 kts 91°
2026-05-09 13:48 33.76878 -117.85716 8481 ft 123 kts 94°
2026-05-09 13:48 33.76795 -117.84695 8574 ft 122 kts 96°
2026-05-09 13:48 33.76707 -117.83691 8670 ft 122 kts 97°
2026-05-09 13:48 33.76615 -117.82676 8767 ft 122 kts 97°
2026-05-09 13:49 33.76526 -117.81663 8864 ft 122 kts 97°
2026-05-09 13:49 33.76448 -117.80649 8961 ft 122 kts 96°
2026-05-09 13:49 33.76380 -117.79636 9058 ft 122 kts 95°
2026-05-09 13:49 33.76312 -117.78624 9157 ft 122 kts 95°
2026-05-09 13:50 33.76242 -117.77607 9271 ft 121 kts 95°
2026-05-09 13:50 33.76165 -117.76601 9370 ft 121 kts 95°
2026-05-09 13:50 33.76089 -117.75594 9470 ft 121 kts 95°
2026-05-09 13:50 33.76011 -117.74586 9571 ft 121 kts 95°
2026-05-09 13:51 33.75934 -117.73577 9673 ft 121 kts 95°
2026-05-09 13:51 33.75857 -117.72574 9772 ft 120 kts 95°
2026-05-09 13:51 33.75781 -117.71577 9872 ft 120 kts 95°
2026-05-09 13:51 33.75705 -117.70579 9964 ft 119 kts 95°
2026-05-09 13:52 33.75628 -117.69583 10056 ft 120 kts 95°
2026-05-09 13:52 33.75550 -117.68582 10148 ft 120 kts 95°
2026-05-09 13:52 33.75474 -117.67585 10240 ft 120 kts 95°
2026-05-09 13:52 33.75398 -117.66588 10332 ft 120 kts 95°
2026-05-09 13:53 33.75320 -117.65590 10425 ft 120 kts 95°
2026-05-09 13:53 33.75243 -117.64592 10517 ft 120 kts 95°
2026-05-09 13:53 33.75167 -117.63601 10587 ft 121 kts 95°
2026-05-09 13:53 33.75086 -117.62583 10659 ft 123 kts 95°
2026-05-09 13:54 33.75004 -117.61557 10708 ft 124 kts 95°
2026-05-09 13:54 33.74924 -117.60524 10781 ft 125 kts 95°
2026-05-09 13:54 33.74839 -117.59487 10852 ft 125 kts 96°
2026-05-09 13:54 33.74749 -117.58449 10916 ft 125 kts 96°
2026-05-09 13:55 33.74666 -117.57404 10984 ft 127 kts 96°
2026-05-09 13:55 33.74568 -117.56324 10986 ft 133 kts 98°
2026-05-09 13:55 33.74471 -117.55202 10984 ft 137 kts 97°
2026-05-09 13:55 33.74381 -117.54051 10984 ft 139 kts 97°
2026-05-09 13:56 33.74292 -117.52888 10980 ft 140 kts 96°
2026-05-09 13:56 33.74201 -117.51728 10981 ft 140 kts 97°
2026-05-09 13:56 33.74110 -117.50564 10981 ft 140 kts 96°
2026-05-09 13:56 33.74018 -117.49393 10980 ft 141 kts 96°
2026-05-09 13:57 33.73926 -117.48221 10977 ft 141 kts 96°
2026-05-09 13:57 33.73834 -117.47048 10973 ft 141 kts 97°
2026-05-09 13:57 33.73741 -117.45876 10971 ft 141 kts 97°
2026-05-09 13:57 33.73648 -117.44701 10969 ft 141 kts 97°
2026-05-09 13:58 33.73554 -117.43525 10964 ft 142 kts 97°
2026-05-09 13:58 33.73461 -117.42345 10964 ft 142 kts 97°
2026-05-09 13:58 33.73368 -117.41166 10962 ft 142 kts 97°
2026-05-09 13:58 33.73273 -117.39985 10961 ft 142 kts 97°
2026-05-09 13:59 33.73181 -117.38819 10961 ft 142 kts 97°
2026-05-09 13:59 33.73085 -117.37620 10967 ft 142 kts 97°
2026-05-09 13:59 33.72992 -117.36439 10987 ft 141 kts 97°
2026-05-09 13:59 33.72901 -117.35313 11080 ft 135 kts 97°
2026-05-09 14:00 33.72809 -117.34186 11094 ft 136 kts 97°
2026-05-09 14:00 33.72779 -117.33803 11091 ft 137 kts 97°
2026-05-09 14:00 33.72626 -117.31883 11092 ft 140 kts 97°
2026-05-09 14:00 33.72534 -117.30715 11092 ft 141 kts 97°
2026-05-09 14:01 33.72440 -117.29544 11093 ft 141 kts 96°
2026-05-09 14:01 33.72348 -117.28367 11093 ft 141 kts 97°
2026-05-09 14:01 33.72254 -117.27192 11092 ft 141 kts 97°
2026-05-09 14:01 33.72159 -117.26016 11092 ft 142 kts 97°
2026-05-09 14:02 33.72064 -117.24837 11091 ft 142 kts 97°
2026-05-09 14:02 33.71969 -117.23657 11090 ft 142 kts 97°
2026-05-09 14:02 33.71874 -117.22474 11081 ft 142 kts 96°
2026-05-09 14:02 33.71779 -117.21293 11082 ft 141 kts 97°
2026-05-09 14:03 33.71683 -117.20119 11082 ft 141 kts 97°
2026-05-09 14:03 33.71587 -117.18941 11082 ft 141 kts 97°
2026-05-09 14:03 33.71492 -117.17764 11144 ft 141 kts 97°
2026-05-09 14:03 33.71396 -117.16600 11146 ft 142 kts 96°
2026-05-09 14:04 33.71299 -117.15402 11148 ft 142 kts 96°
2026-05-09 14:04 33.71204 -117.14238 11150 ft 142 kts 96°
2026-05-09 14:04 33.71107 -117.13058 11154 ft 142 kts 96°
2026-05-09 14:04 33.71011 -117.11875 11154 ft 142 kts 96°
2026-05-09 14:05 33.70914 -117.10692 11155 ft 142 kts 96°
2026-05-09 14:05 33.70817 -117.09513 11154 ft 142 kts 97°
2026-05-09 14:05 33.70720 -117.08326 11152 ft 142 kts 96°
2026-05-09 14:05 33.70623 -117.07144 11151 ft 142 kts 97°
2026-05-09 14:06 33.70525 -117.05957 11148 ft 143 kts 96°
2026-05-09 14:06 33.70428 -117.04774 11147 ft 143 kts 97°
2026-05-09 14:06 33.70330 -117.03587 11146 ft 143 kts 96°
2026-05-09 14:06 33.70232 -117.02399 11146 ft 143 kts 96°
2026-05-09 14:07 33.70134 -117.01211 11146 ft 143 kts 96°
2026-05-09 14:07 33.70035 -117.00023 11145 ft 143 kts 97°
2026-05-09 14:07 33.69940 -116.98837 11143 ft 143 kts 96°
2026-05-09 14:07 33.69842 -116.97650 11142 ft 143 kts 96°
2026-05-09 14:08 33.69746 -116.96481 11139 ft 143 kts 96°
2026-05-09 14:08 33.69646 -116.95295 11139 ft 143 kts 96°
2026-05-09 14:08 33.69549 -116.94105 11141 ft 143 kts 96°
2026-05-09 14:08 33.69449 -116.92911 11141 ft 144 kts 96°
2026-05-09 14:09 33.69349 -116.91720 11135 ft 143 kts 96°
2026-05-09 14:09 33.69248 -116.90531 11133 ft 143 kts 97°
2026-05-09 14:09 33.69150 -116.89346 11129 ft 143 kts 96°
2026-05-09 14:09 33.69051 -116.88162 11126 ft 143 kts 96°
2026-05-09 14:10 33.68844 -116.85792 11120 ft 144 kts 97°
2026-05-09 14:10 33.68739 -116.84595 11112 ft 143 kts 96°
2026-05-09 14:10 33.68633 -116.83403 11109 ft 144 kts 97°
2026-05-09 14:11 33.68521 -116.82209 11102 ft 144 kts 97°
2026-05-09 14:11 33.68413 -116.81014 11099 ft 144 kts 97°
2026-05-09 14:11 33.68304 -116.79814 11094 ft 145 kts 97°
2026-05-09 14:11 33.68197 -116.78612 11099 ft 144 kts 96°
2026-05-09 14:12 33.68085 -116.77418 11094 ft 143 kts 97°
2026-05-09 14:12 33.67975 -116.76234 11090 ft 142 kts 97°
2026-05-09 14:12 33.67865 -116.75056 11087 ft 142 kts 97°
2026-05-09 14:12 33.67757 -116.73872 11065 ft 143 kts 97°
2026-05-09 14:13 33.67645 -116.72683 11065 ft 143 kts 97°
2026-05-09 14:14 33.66886 -116.64464 11034 ft 142 kts 97°
2026-05-09 14:15 33.66778 -116.63282 11024 ft 143 kts 97°
2026-05-09 14:15 33.66671 -116.62106 11002 ft 141 kts 97°
2026-05-09 14:15 33.66561 -116.60930 10993 ft 142 kts 97°
2026-05-09 14:15 33.66452 -116.59745 10988 ft 143 kts 97°
2026-05-09 14:16 33.66342 -116.58565 10989 ft 142 kts 97°
2026-05-09 14:16 33.66232 -116.57385 10988 ft 142 kts 97°
2026-05-09 14:16 33.66124 -116.56201 10989 ft 142 kts 99°
2026-05-09 14:16 33.66031 -116.55027 10987 ft 141 kts 96°
2026-05-09 14:17 33.65942 -116.53857 10987 ft 140 kts 97°
2026-05-09 14:17 33.65852 -116.52694 10988 ft 139 kts 96°
2026-05-09 14:17 33.65765 -116.51528 10936 ft 143 kts 96°
2026-05-09 14:17 33.65678 -116.50300 10752 ft 151 kts 96°
2026-05-09 14:18 33.65581 -116.49021 10583 ft 156 kts 96°
2026-05-09 14:18 33.65486 -116.47718 10405 ft 158 kts 96°
2026-05-09 14:18 33.65389 -116.46420 10225 ft 159 kts 97°
2026-05-09 14:18 33.65297 -116.45099 10046 ft 159 kts 96°
2026-05-09 14:19 33.65206 -116.43781 9868 ft 158 kts 96°
2026-05-09 14:19 33.65118 -116.42462 9680 ft 158 kts 96°
2026-05-09 14:19 33.65026 -116.41145 9478 ft 158 kts 96°
2026-05-09 14:19 33.64931 -116.39827 9277 ft 158 kts 96°
2026-05-09 14:20 33.64832 -116.38511 9076 ft 158 kts 96°
2026-05-09 14:20 33.64737 -116.37207 8935 ft 152 kts 97°
2026-05-09 14:20 33.64651 -116.35972 8937 ft 146 kts 96°
2026-05-09 14:21 33.64281 -116.33661 8935 ft 139 kts 118°
2026-05-09 14:21 33.63796 -116.32667 8935 ft 137 kts 120°
2026-05-09 14:21 33.63369 -116.31645 8937 ft 137 kts 118°
2026-05-09 14:21 33.63074 -116.30974 8935 ft 137 kts 120°
2026-05-09 14:22 33.62608 -116.29977 8934 ft 137 kts 117°
2026-05-09 14:22 33.62254 -116.28914 8937 ft 137 kts 112°
2026-05-09 14:22 33.61896 -116.27827 8821 ft 144 kts 113°
2026-05-09 14:22 33.61511 -116.26693 8699 ft 149 kts 113°
2026-05-09 14:23 33.61121 -116.25526 8538 ft 152 kts 113°
2026-05-09 14:23 33.60730 -116.24342 8405 ft 154 kts 113°
2026-05-09 14:23 33.60335 -116.23161 8256 ft 150 kts 113°
2026-05-09 14:23 33.59994 -116.22154 8104 ft 147 kts 113°
2026-05-09 14:24 33.59837 -116.21687 8034 ft 146 kts 113°
2026-05-09 14:24 33.59459 -116.20561 7864 ft 145 kts 113°
2026-05-09 14:24 33.59076 -116.19441 7695 ft 145 kts 113°
2026-05-09 14:24 33.58699 -116.18328 7528 ft 144 kts 113°
2026-05-09 14:25 33.58314 -116.17216 7359 ft 144 kts 113°
2026-05-09 14:25 33.57930 -116.16108 7196 ft 144 kts 113°
2026-05-09 14:25 33.57543 -116.14998 7031 ft 144 kts 113°
2026-05-09 14:25 33.57157 -116.13891 6860 ft 144 kts 113°
2026-05-09 14:26 33.56774 -116.12794 6707 ft 144 kts 113°
2026-05-09 14:26 33.56385 -116.11689 6546 ft 144 kts 113°
2026-05-09 14:26 33.55989 -116.10568 6380 ft 144 kts 113°
2026-05-09 14:26 33.55603 -116.09478 6210 ft 144 kts 113°
2026-05-09 14:27 33.55211 -116.08370 6050 ft 144 kts 113°
2026-05-09 14:27 33.55017 -116.07194 5850 ft 145 kts 91°
2026-05-09 14:27 33.55242 -116.06020 5655 ft 146 kts 67°
2026-05-09 14:27 33.55851 -116.05058 5452 ft 146 kts 43°
2026-05-09 14:28 33.56733 -116.04483 5261 ft 145 kts 19°
2026-05-09 14:28 33.57733 -116.04396 5067 ft 145 kts 351°
2026-05-09 14:28 33.58632 -116.04902 4903 ft 144 kts 319°
2026-05-09 14:28 33.59207 -116.05872 4742 ft 143 kts 296°
2026-05-09 14:29 33.59640 -116.06933 4655 ft 137 kts 293°
2026-05-09 14:29 33.60035 -116.07927 4661 ft 128 kts 293°
2026-05-09 14:29 33.60414 -116.08875 4661 ft 124 kts 293°
2026-05-09 14:29 33.60789 -116.09801 4638 ft 123 kts 296°
2026-05-09 14:30 33.61044 -116.10759 4656 ft 119 kts 281°
2026-05-09 14:30 33.61260 -116.11722 4638 ft 120 kts 290°
2026-05-09 14:30 33.61642 -116.12621 4610 ft 121 kts 301°
2026-05-09 14:30 33.62036 -116.13491 4614 ft 119 kts 299°
2026-05-09 14:31 33.62417 -116.14377 4606 ft 120 kts 298°
2026-05-09 14:31 33.62811 -116.15253 4604 ft 119 kts 300°
2026-05-09 14:31 33.63222 -116.16122 4598 ft 120 kts 301°
2026-05-09 14:31 33.63655 -116.17002 4643 ft 124 kts 301°
2026-05-09 14:32 33.64075 -116.17911 4700 ft 126 kts 298°
2026-05-09 14:32 33.64508 -116.18852 4701 ft 132 kts 300°
2026-05-09 14:32 33.64964 -116.19825 4682 ft 137 kts 300°
2026-05-09 14:32 33.65403 -116.20853 4648 ft 140 kts 296°
2026-05-09 14:33 33.65798 -116.21934 4589 ft 143 kts 293°
2026-05-09 14:33 33.66174 -116.23031 4596 ft 140 kts 292°
2026-05-09 14:33 33.66591 -116.24091 4573 ft 141 kts 298°
2026-05-09 14:33 33.67054 -116.25125 4563 ft 140 kts 299°
2026-05-09 14:34 33.67508 -116.26158 4618 ft 139 kts 296°
2026-05-09 14:34 33.67965 -116.27180 4604 ft 139 kts 299°
2026-05-09 14:34 33.68476 -116.28162 4590 ft 139 kts 304°
2026-05-09 14:34 33.69032 -116.29116 4585 ft 139 kts 304°
2026-05-09 14:35 33.69562 -116.30072 4595 ft 138 kts 303°
2026-05-09 14:35 33.70083 -116.31052 4563 ft 139 kts 299°
2026-05-09 14:35 33.70568 -116.32050 4519 ft 142 kts 300°
2026-05-09 14:35 33.71055 -116.33097 4433 ft 145 kts 297°
2026-05-09 14:36 33.71500 -116.34213 4280 ft 149 kts 294°
2026-05-09 14:36 33.71905 -116.35339 4080 ft 146 kts 293°
2026-05-09 14:36 33.72386 -116.36361 3977 ft 137 kts 302°
2026-05-09 14:36 33.72932 -116.37322 3654 ft 143 kts 303°
2026-05-09 14:37 33.73426 -116.38360 3252 ft 142 kts 297°
2026-05-09 14:37 33.73857 -116.39370 3040 ft 129 kts 296°
2026-05-09 14:37 33.74408 -116.40189 2679 ft 125 kts 310°
2026-05-09 14:37 33.74960 -116.40991 2396 ft 123 kts 308°
2026-05-09 14:38 33.75460 -116.41817 2176 ft 120 kts 303°
2026-05-09 14:38 33.75908 -116.42630 1934 ft 115 kts 302°
2026-05-09 14:38 33.76353 -116.43388 1829 ft 108 kts 314°
2026-05-09 14:38 33.76938 -116.43924 1881 ft 103 kts 325°
2026-05-09 14:39 33.77441 -116.44541 1885 ft 105 kts 310°
2026-05-09 14:39 33.77917 -116.45248 1819 ft 114 kts 309°
2026-05-09 14:39 33.78405 -116.46001 1685 ft 114 kts 308°
2026-05-09 14:39 33.78899 -116.46754 1452 ft 115 kts 308°
2026-05-09 14:40 33.79436 -116.47458 1159 ft 112 kts 310°
2026-05-09 14:40 33.79964 -116.48122 859 ft 103 kts 315°
2026-05-09 14:40 33.80528 -116.48610 682 ft 99 kts 326°
2026-05-09 14:40 33.81062 -116.49074 597 ft 92 kts 323°
2026-05-09 14:41 33.81545 -116.49508 514 ft 85 kts 320°
2026-05-09 14:41 33.82015 -116.49925 455 ft 82 kts 322°
2026-05-09 14:41 33.82452 -116.50307 411 ft 67 kts 323°
2026-05-09 14:41 33.82750 -116.50570 425 ft 30 kts 323°
2026-05-09 14:42 33.82856 -116.50687 429 ft 19 kts 298°
2026-05-09 14:42 33.82881 -116.50805 425 ft 8 kts 250°
2026-05-09 14:42 33.82873 -116.50831 431 ft 0 kts 250°
2026-05-09 14:43 33.82872 -116.50834 432 ft 2 kts 244°
2026-05-09 14:43 33.82857 -116.50848 429 ft 4 kts 201°
2026-05-09 14:43 33.82837 -116.50852 431 ft 6 kts 163°
2026-05-09 14:43 33.82780 -116.50806 420 ft 14 kts 144°
2026-05-09 14:44 33.82691 -116.50727 428 ft 14 kts 143°
2026-05-09 14:44 33.82622 -116.50680 425 ft 9 kts 184°
2026-05-09 14:44 33.82585 -116.50705 423 ft 8 kts 201°
2026-05-09 14:44 33.82536 -116.50762 422 ft 12 kts 266°
2026-05-09 14:45 33.82536 -116.50869 424 ft 8 kts 275°
2026-05-09 14:45 33.82583 -116.50912 427 ft 8 kts 359°
2026-05-09 14:45 33.82634 -116.50912 429 ft 9 kts 352°
2026-05-09 14:45 33.82646 -116.50929 429 ft 0 kts 273°